Location: Banska Bystrica
(0.0000°N, 19.1500°E)
Time: 08:16:01
(UTC+01:00)

Daily predictions for brighter satellites

Satellite Brightness Start Highest point End
(mag) Time Altitude Azimuth Time Altitude Azimuth Time Altitude Azimuth
Ariane H10+ 2.7 18:06:25 10° W 18:10:32 87° S 18:24:17 10° E
CSL-04 Rocket 3.7 18:13:08 10° SSE 18:18:41 76° ENE 18:24:10 10° N
Cosmos 990 Rocket 3.9 18:13:35 10° N 18:18:42 77° ENE 18:23:49 10° SSE
SJ 16-02 2.1 18:18:15 10° NNE 18:22:09 31° E 18:26:03 10° SE
CZ-2C R/B 4.0 18:17:39 10° N 18:22:09 73° WNW 18:26:45 10° SSW
ARIANE 5 R/B 4.4 18:18:00 10° W 18:22:49 86° S 18:47:48 10° E
ARIANE 5 R/B 2.0 18:22:23 10° W 18:24:48 72° N 18:32:56 10° E
Cosmos 1709 Rocket 4.0 18:21:03 10° N 18:27:14 73° E 18:33:21 10° S
CSL-04 Debris 4.3 18:22:38 10° SSE 18:28:06 88° WSW 18:33:33 10° NNW
Ariane H10-3 4.4 18:22:30 10° W 18:28:50 87° N 18:38:16 10° E
Cosmos 2084 Rocket 4.4 18:26:44 10° N 18:30:06 25° ENE 18:33:29 10° ESE
Cosmos 2298 Rocket 4.3 18:28:07 10° N 18:33:12 46° ENE 18:38:17 10° SSE
Hubble Space Telescope 2.7 18:31:03 10° N 18:33:19 14° NNE 18:35:21 11° ENE
ARIANE 5 R/B 2.0 18:29:13 10° W 18:37:54 84° S 18:39:56 15° E
Cosmos 1862 Rocket 4.5 18:34:18 10° NNW 18:38:31 52° W 18:42:43 10° S
Envisat 3.0 18:37:26 10° SSE 18:42:27 59° ENE 18:47:24 10° N
Ariane H10-3 4.0 18:28:45 10° W 18:44:58 83° N 18:47:39 18° E
Ariane H10+ 3.8 18:20:39 10° W 18:45:51 81° S 18:49:53 15° E
Milstar 3 2.9 18:38:37 10° NW 18:47:38 74° NNE 18:54:01 11° ESE
Cosmos 2074 Rocket 4.4 18:45:30 10° NNE 18:51:13 39° E 18:57:00 10° SSE
CZ-4 R/B 3.8 18:50:52 10° SSW 18:54:03 25° WSW 18:57:13 10° NW
MONITOR-E 3.8 18:52:26 10° SSE 18:55:20 79° E 18:58:13 10° N
Cosmos 2184 Rocket 4.3 18:49:52 10° NNE 18:55:44 41° E 19:01:34 10° SSE
GPS 2-15 Rocket1 4.0 18:51:52 10° W 18:56:30 47° SSW 19:00:35 13° SE
Genesis I 3.7 18:53:36 10° S 18:57:14 39° ESE 18:58:48 27° ENE
YAOGAN 6 2.6 18:54:19 10° SSE 18:57:45 52° ENE 19:01:11 10° N
ATLAS 2A CENTAUR R/B 3.2 18:55:47 10° W 18:59:08 54° NNW 19:07:19 16° NE
Cosmos 1602 4.0 18:55:34 10° SSE 18:59:11 41° E 19:01:22 20° NNE
BREEZE-M DEB 3.5 18:57:02 10° NNW 18:58:59 49° NNE 18:58:59 49° NNE
MOS 1 4.4 18:55:01 10° SSE 19:00:29 51° ENE 19:05:55 10° N
ATLAS CENTAUR R/B 4.3 18:57:28 10° WNW 19:00:50 21° WSW 19:04:02 10° SSW
YAOGAN 1 4.3 18:57:14 10° SSW 19:01:10 35° WSW 19:05:06 10° NW
COSMOS 2455 4.2 18:59:35 10° NNE 19:02:18 19° NE 19:02:18 19° NE
Cosmos 2278 Rocket 2.8 19:03:19 10° SSW 19:08:52 58° WNW 19:14:23 10° N
Cosmos 2098 Rocket 3.1 19:07:04 10° N 19:11:59 56° E 19:15:52 10° SSE
USA 229 DEB 4.4 19:08:59 10° NNW 19:16:22 62° WSW 19:23:47 10° SSE
USA 229 4.4 19:09:04 10° NNW 19:16:29 63° WSW 19:23:55 10° SSE
NOSS 3-1 (A) 4.2 19:10:29 10° NNW 19:19:02 65° ENE 19:27:37 10° SSE
Cosmos 1812 3.1 19:18:50 10° NNW 19:22:37 63° W 19:26:25 10° S
Okean 1-7 3.5 19:21:59 10° NNW 19:26:09 58° W 19:30:19 10° S
USA 234 3.6 19:27:09 39° ENE 19:28:07 41° NE 19:34:10 10° NNW
GPS 2-14 Rocket1 2.7 19:24:53 10° WNW 19:28:34 66° NNW 19:28:34 66° NNW
CZ-2D R/B 3.9 19:26:31 10° S 19:30:16 55° WSW 19:33:59 10° NNW
Cosmos 2297 3.7 19:25:41 10° S 19:31:12 58° ESE 19:31:57 54° ENE
Ariane H10-3 2.4 19:28:46 10° W 19:31:28 62° S 19:32:43 45° ESE
Intelsat 5-1 Rocket 3.6 19:14:27 10° WSW 19:33:39 90° NW 19:36:18 45° ENE
Cosmos 372 Rocket 4.2 19:30:11 10° NNW 19:35:23 69° WSW 19:40:35 10° S
Cosmos 1125 Rocket 3.3 19:31:21 10° N 19:36:38 76° ENE 19:41:56 10° SSE
Ariane H10-3 3.2 19:34:08 10° WSW 19:37:34 59° SSE 19:40:11 39° ESE
Cosmos 2221 Rocket 3.6 19:34:47 10° N 19:39:19 84° W 19:43:54 10° S
H-2A R/B 3.2 19:37:08 10° SW 19:40:25 27° SSW 19:40:25 27° SSW
GEOS 3 Rocket 3.7 19:36:46 10° SSE 19:42:05 78° WSW 19:47:21 10° NNW
COBE Rocket 3.8 19:45:22 81° N 19:45:38 90° WNW 19:50:42 10° S
Cosmos 2154 Rocket 3.9 19:40:16 10° N 19:46:34 71° E 19:52:53 10° S
Cosmos 2112 Rocket 4.5 19:43:32 10° S 19:47:28 48° SSE 19:47:28 48° SSE
Delta 198 4.1 19:45:12 10° WSW 19:50:50 78° SSE 19:50:55 78° SE
Cosmos 1680 Rocket 3.5 19:45:47 10° SSW 19:50:35 74° S 19:50:35 74° S
Meteor 1-11 Rocket 4.0 19:50:06 10° S 19:54:32 57° S 19:54:32 57° S
BLOCK DM-SL R/B 4.3 19:24:19 10° W 19:57:52 89° N 19:59:43 60° E
Ariane H10 4.2 19:51:46 10° W 20:03:36 41° NNW 20:03:36 41° NNW
Hubble Space Telescope 3.7 20:10:25 10° WNW 20:10:45 12° WNW 20:10:45 12° WNW
USA 215 3.4 20:19:29 68° WSW 20:19:29 68° WSW 20:25:07 10° SW
Ariane H10 4.3 20:17:27 10° W 20:30:58 54° WSW 20:30:58 54° WSW
